{"data":{"norad_id":62976,"intl_designator":"2025-030F","name":"HULIANWANG DIGUI-16","alt_names":[],"object_type":"PAYLOAD","status":"ACTIVE","operator":null,"country":"PRC","launch_date":"2025-02-11","launch_site_code":"WSC","launch_vehicle":null,"mission":null,"orbit_class":"UNKNOWN","rcs_meters":null,"size_class":null,"mass_kg":null,"dimensions":null,"purposes":[],"wikipedia_slug":null,"has_3d_model":false,"image_url":null,"decayed_at":null,"tle_current":{"epoch":"2026-09-22T22:14:45.700512Z","epoch_age_seconds":105862,"freshness":"FRESH","line1":"1 62976U 25030F   26265.92691783 -.00000098  00000+0  55266-4 0  9991","line2":"2 62976  50.0038 245.0766 0000483  34.2141 325.8763 13.29328419 78863","mean_motion":13.29328419,"eccentricity":4.83e-5,"inclination_deg":50.0038,"raan_deg":245.0766,"arg_perigee_deg":34.2141,"mean_anomaly_deg":325.8763,"bstar":5.5266e-5,"rev_number":7886,"period_min":108.32537538641,"perigee_km":1148.9338648953,"apogee_km":1149.6610150622,"semimajor_km":7527.4344399787,"source":"CELESTRAK","updated_at":"2026-09-23T09:00:21.736354Z"}}}